When you browse on this site, cookies collect data to enhance your experience and personalize the content and advertising you see.
Visit our Privacy Policy to learn more. By continuing to use the site, you agree to this use of cookies and data.
  • In United Kingdom
  • List of Countries
  • For 7 days
  • Water Temperature
  • Satellite Maps
  • Weather Map
  • Weather Widgets
  • user-avatar
    Login

    Hourly Weather Malakoff

    Today, 16 December, Sunday

    Time Temperature Precipitation Wind Pressure Humidity
    00:00 +3°C° 0.2 mm 3 mps 750 mmHg 97%
    01:00 +3°C° 0 mm 3 mps 751 mmHg 97%
    02:00 +3°C° 0 mm 3 mps 751 mmHg 97%
    03:00 +3°C° 0 mm 3 mps 751 mmHg 97%
    04:00 +2°C° 0 mm 3 mps 752 mmHg 97%
    05:00 +2°C° 0 mm 3 mps 752 mmHg 96%
    06:00 +2°C° 0 mm 3 mps 752 mmHg 96%
    07:00 +2°C° 0 mm 3 mps 753 mmHg 96%
    08:00 +2°C° 0 mm 3 mps 753 mmHg 96%
    09:00 +2°C° 0 mm 3 mps 753 mmHg 95%
    10:00 +3°C° 0 mm 3 mps 753 mmHg 94%
    11:00 +4°C° 0 mm 3 mps 753 mmHg 93%
    12:00 +5°C° 0 mm 3 mps 753 mmHg 92%
    13:00 +4°C° 0 mm 3 mps 753 mmHg 93%
    14:00 +4°C° 0 mm 3 mps 753 mmHg 93%
    15:00 +4°C° 0 mm 3 mps 753 mmHg 94%
    16:00 +4°C° 0.1 mm 3 mps 753 mmHg 95%
    17:00 +4°C° 0.1 mm 3 mps 753 mmHg 95%
    18:00 +4°C° 0.1 mm 3 mps 753 mmHg 96%
    19:00 +4°C° 0.7 mm 4 mps 752 mmHg 95%
    20:00 +4°C° 0.7 mm 4 mps 752 mmHg 95%
    21:00 +5°C° 0.7 mm 5 mps 752 mmHg 94%
    22:00 +5°C° 0.5 mm 5 mps 752 mmHg 93%
    23:00 +5°C° 0.5 mm 5 mps 753 mmHg 92%

    Tomorrow, 17 December, Monday

    Time Temperature Precipitation Wind Pressure Humidity
    00:00 +5°C° 0.5 mm 6 mps 753 mmHg 91%
    01:00 +5°C° 0.1 mm 6 mps 754 mmHg 90%
    02:00 +5°C° 0.1 mm 6 mps 754 mmHg 89%
    03:00 +4°C° 0.1 mm 6 mps 755 mmHg 88%
    04:00 +5°C° 0 mm 5 mps 755 mmHg 88%
    05:00 +5°C° 0 mm 5 mps 756 mmHg 88%
    06:00 +3°C° 0 mm 5 mps 757 mmHg 89%
    07:00 +4°C° 0 mm 4 mps 758 mmHg 89%
    08:00 +4°C° 0 mm 4 mps 759 mmHg 89%
    09:00 +4°C° 0 mm 4 mps 760 mmHg 90%
    10:00 +5°C° 0 mm 4 mps 760 mmHg 87%
    11:00 +6°C° 0 mm 4 mps 760 mmHg 84%
    12:00 +8°C° 0 mm 3 mps 761 mmHg 81%
    13:00 +8°C° 0 mm 3 mps 761 mmHg 82%
    14:00 +8°C° 0 mm 3 mps 761 mmHg 83%
    15:00 +8°C° 0 mm 2 mps 761 mmHg 85%
    16:00 +7°C° 0 mm 3 mps 762 mmHg 87%
    17:00 +5°C° 0 mm 3 mps 762 mmHg 89%
    18:00 +5°C° 0 mm 3 mps 762 mmHg 91%
    19:00 +4°C° 0 mm 3 mps 762 mmHg 92%
    20:00 +4°C° 0 mm 3 mps 763 mmHg 93%
    21:00 +4°C° 0 mm 3 mps 763 mmHg 93%
    22:00 +4°C° 0 mm 3 mps 763 mmHg 94%
    23:00 +4°C° 0 mm 3 mps 762 mmHg 94%

    Day after tomorrow, 18 December, Tuesday

    Time Temperature Precipitation Wind Pressure Humidity
    00:00 +4°C° 0 mm 3 mps 762 mmHg 95%
    01:00 +4°C° 0 mm 4 mps 762 mmHg 95%
    02:00 +4°C° 0 mm 4 mps 762 mmHg 95%
    03:00 +4°C° 0 mm 4 mps 761 mmHg 95%
    04:00 +3°C° 0 mm 4 mps 761 mmHg 93%
    05:00 +3°C° 0 mm 4 mps 760 mmHg 92%
    06:00 +2°C° 0 mm 5 mps 760 mmHg 90%
    07:00 +3°C° 0 mm 5 mps 759 mmHg 86%
    08:00 +3°C° 0 mm 5 mps 759 mmHg 83%
    09:00 +3°C° 0 mm 6 mps 758 mmHg 79%
    10:00 +4°C° 0 mm 6 mps 757 mmHg 73%
    11:00 +5°C° 0 mm 6 mps 757 mmHg 67%
    12:00 +7°C° 0 mm 6 mps 756 mmHg 60%
    13:00 +7°C° 0 mm 6 mps 755 mmHg 61%
    14:00 +7°C° 0 mm 6 mps 754 mmHg 62%
    15:00 +7°C° 0 mm 5 mps 754 mmHg 63%
    16:00 +7°C° 0 mm 5 mps 753 mmHg 65%
    17:00 +6°C° 0 mm 5 mps 753 mmHg 66%
    18:00 +6°C° 0 mm 5 mps 753 mmHg 68%
    19:00 +6°C° 0 mm 5 mps 753 mmHg 69%
    20:00 +7°C° 0 mm 6 mps 753 mmHg 70%
    21:00 +7°C° 0 mm 6 mps 753 mmHg 72%
    22:00 +7°C° 0.7 mm 6 mps 753 mmHg 77%
    23:00 +7°C° 0.7 mm 6 mps 753 mmHg 82%

    19 December, Wednesday

    Time Temperature Precipitation Wind Pressure Humidity
    00:00 +7°C° 0.7 mm 6 mps 753 mmHg 88%
    01:00 +7°C° 0.6 mm 5 mps 753 mmHg 89%
    02:00 +7°C° 0.6 mm 5 mps 754 mmHg 91%
    03:00 +7°C° 0.6 mm 4 mps 754 mmHg 92%
    04:00 +7°C° 0.1 mm 4 mps 754 mmHg 92%
    05:00 +7°C° 0.1 mm 4 mps 754 mmHg 93%
    06:00 +7°C° 0.1 mm 4 mps 755 mmHg 93%
    07:00 +6°C° 0 mm 4 mps 755 mmHg 93%
    08:00 +6°C° 0 mm 4 mps 755 mmHg 93%
    09:00 +6°C° 0 mm 4 mps 755 mmHg 93%
    10:00 +7°C° 0 mm 4 mps 755 mmHg 89%
    11:00 +8°C° 0 mm 4 mps 755 mmHg 84%
    12:00 +8°C° 0 mm 4 mps 755 mmHg 79%
    13:00 +8°C° 0 mm 4 mps 755 mmHg 80%
    14:00 +9°C° 0 mm 3 mps 755 mmHg 81%
    15:00 +9°C° 0 mm 3 mps 754 mmHg 82%
    16:00 +8°C° 0.2 mm 3 mps 755 mmHg 85%
    17:00 +8°C° 0.2 mm 2 mps 755 mmHg 88%
    18:00 +7°C° 0.2 mm 2 mps 755 mmHg 91%
    19:00 +7°C° 0 mm 2 mps 756 mmHg 91%
    20:00 +6°C° 0 mm 2 mps 756 mmHg 92%
    21:00 +6°C° 0 mm 2 mps 756 mmHg 92%
    22:00 +6°C° 0 mm 2 mps 756 mmHg 93%
    23:00 +5°C° 0 mm 2 mps 756 mmHg 93%

    20 December, Thursday

    Time Temperature Precipitation Wind Pressure Humidity
    00:00 +5°C° 0 mm 2 mps 757 mmHg 93%
    01:00 +5°C° 0 mm 2 mps 757 mmHg 93%
    02:00 +3°C° 0 mm 3 mps 757 mmHg 93%
    03:00 +3°C° 0 mm 3 mps 757 mmHg 93%
    04:00 +3°C° 0 mm 3 mps 757 mmHg 93%
    05:00 +3°C° 0 mm 3 mps 758 mmHg 93%
    06:00 +3°C° 0 mm 3 mps 758 mmHg 93%
    07:00 +3°C° 0 mm 3 mps 758 mmHg 92%
    08:00 +3°C° 0 mm 3 mps 759 mmHg 91%
    09:00 +3°C° 0 mm 3 mps 759 mmHg 90%
    10:00 +4°C° 0 mm 4 mps 759 mmHg 86%
    11:00 +5°C° 0 mm 4 mps 760 mmHg 83%
    12:00 +6°C° 0 mm 4 mps 760 mmHg 79%
    13:00 +6°C° 0 mm 4 mps 760 mmHg 80%
    14:00 +7°C° 0 mm 3 mps 760 mmHg 81%
    15:00 +7°C° 0 mm 3 mps 760 mmHg 82%
    16:00 +7°C° 0 mm 3 mps 760 mmHg 85%
    17:00 +5°C° 0 mm 3 mps 761 mmHg 87%
    18:00 +4°C° 0 mm 3 mps 761 mmHg 90%
    19:00 +4°C° 0 mm 3 mps 761 mmHg 90%
    20:00 +4°C° 0 mm 3 mps 761 mmHg 90%
    21:00 +4°C° 0 mm 3 mps 761 mmHg 90%
    22:00 +4°C° 0 mm 4 mps 761 mmHg 89%
    23:00 +5°C° 0 mm 4 mps 761 mmHg 89%

    21 December, Friday

    Time Temperature Precipitation Wind Pressure Humidity
    00:00 +5°C° 0 mm 5 mps 761 mmHg 89%
    01:00 +6°C° 0.1 mm 5 mps 760 mmHg 89%
    02:00 +5°C° 0.1 mm 6 mps 759 mmHg 90%
    03:00 +7°C° 0.1 mm 6 mps 759 mmHg 90%
    04:00 +6°C° 0.7 mm 7 mps 758 mmHg 90%
    05:00 +8°C° 0.7 mm 7 mps 758 mmHg 90%
    06:00 +7°C° 0.7 mm 8 mps 757 mmHg 89%
    07:00 +9°C° 1 mm 8 mps 757 mmHg 89%
    08:00 +9°C° 1 mm 8 mps 757 mmHg 89%
    09:00 +10°C° 1 mm 8 mps 757 mmHg 88%
    10:00 +10°C° 1.2 mm 9 mps 756 mmHg 87%
    11:00 +10°C° 1.2 mm 9 mps 756 mmHg 87%
    12:00 +11°C° 1.2 mm 9 mps 756 mmHg 86%
    13:00 +11°C° 1.1 mm 9 mps 756 mmHg 86%
    14:00 +11°C° 1.1 mm 9 mps 756 mmHg 86%
    15:00 +11°C° 1.1 mm 8 mps 755 mmHg 86%
    16:00 +11°C° 0.6 mm 9 mps 755 mmHg 86%
    17:00 +11°C° 0.6 mm 9 mps 755 mmHg 85%
    18:00 +11°C° 0.6 mm 9 mps 755 mmHg 85%
    19:00 +12°C° 0.2 mm 9 mps 755 mmHg 85%
    20:00 +12°C° 0.2 mm 9 mps 755 mmHg 84%
    21:00 +12°C° 0.2 mm 9 mps 756 mmHg 84%
    22:00 +12°C° 0.1 mm 8 mps 756 mmHg 84%
    23:00 +11°C° 0.1 mm 8 mps 756 mmHg 85%
    Show more